{"data":{"norad_id":56317,"intl_designator":"2023-058A","name":"STARLINK-6038","alt_names":[],"object_type":"PAYLOAD","status":"ACTIVE","operator":null,"country":"US","launch_date":"2023-04-27","launch_site_code":"AFWTR","launch_vehicle":null,"mission":null,"orbit_class":"UNKNOWN","rcs_meters":null,"size_class":null,"mass_kg":null,"dimensions":null,"purposes":["comms"],"wikipedia_slug":null,"has_3d_model":false,"image_url":null,"decayed_at":null,"tle_current":{"epoch":"2026-09-20T13:26:04.368192Z","epoch_age_seconds":103500,"freshness":"FRESH","line1":"1 56317U 23058A   26263.55977278  .00000407  00000+0  14934-4 0  9994","line2":"2 56317  97.2843 260.3032 0001468  92.2410 267.9001 15.33435845187293","mean_motion":15.33435845,"eccentricity":0.0001468,"inclination_deg":97.2843,"raan_deg":260.3032,"arg_perigee_deg":92.241,"mean_anomaly_deg":267.9001,"bstar":1.4934e-5,"rev_number":18729,"period_min":93.906765300638,"perigee_km":464.56575720426,"apogee_km":466.57506970085,"semimajor_km":6843.7074134526,"source":"CELESTRAK","updated_at":"2026-09-21T09:00:33.400387Z"}}}